Miami, FL

1:12 AM EDT on May 22, 2018 (GMT -0400)
Miami International

Weather History for KMIA - April, 2014

Change the Weather History Date:

Wednesday, April 9, 2014

  Actual Average Record
Temperature  
Mean Temperature 73 °F 75 °F  
Max Temperature 79 °F 82 °F 93 °F (1982)
Min Temperature 67 °F 67 °F 42 °F (1939)
Degree Days  
Heating Degree Days 0 0  
Month to date heating degree days 0 0  
Since 1 July heating degree days 61 127  
Cooling Degree Days 8 10  
Month to date cooling degree days 100 86  
Year to date cooling degree days 798 655  
Growing Degree Days 22 (Base 50)    
Moisture  
Dew Point 53 °F    
Average Humidity 55    
Maximum Humidity 78    
Minimum Humidity 31    
Precipitation  
Precipitation 0.00 in 0.10 in 4.67 in (1990)
Month to date precipitation 0.22 0.93  
Year to date precipitation 5.90 7.80  
Snow  
Snow 0.00 in - - ()
Month to date snowfall 0.0  
Since 1 July snowfall 0.0  
Snow Depth 0.00 in    
Sea Level Pressure  
Sea Level Pressure 30.03 in    
Wind  
Wind Speed 8 mph (WNW)    
Max Wind Speed 20 mph    
Max Gust Speed 30 mph    
Visibility 10 miles    
Events      
T = Trace of Precipitation, MM = Missing Value Source: NWS Daily Summary

Daily Weather History Graph

Daily Weather History Graph

Search for Another Location

Airport or City:

Astronomy

Apr. 09, 2014 Rise Set
Actual Time 7:04 AM EDT 7:41 PM EDT
Civil Twilight 6:40 AM EDT 8:04 PM EDT
Nautical Twilight 6:13 AM EDT 8:32 PM EDT
Astronomical Twilight 5:45 AM EDT 9:00 PM EDT
Moon 2:57 PM EDT (4/9) 3:21 AM EDT (4/9)
Length of Visible Light 13h 24m
Length of Day
12h 37m
Waxing Gibbous, 71% of the Moon is Illuminated
Apr 9
Waxing Gibbous
Apr 15
Full
Apr 22
Last Quarter
Apr 29
New
May 6
First Quarter

Hourly Weather History & Observations

Time (EDT) Temp. Dew Point Humidity Pressure Visibility Wind Dir Wind Speed Gust Speed Precip Events Conditions
12:53 AM 70.0 °F 62.1 °F 76% 29.92 in 10.0 mi West 9.2 mph - N/A   Overcast
1:53 AM 70.0 °F 63.0 °F 78% 29.94 in 10.0 mi West 8.1 mph - N/A   Overcast
2:53 AM 70.0 °F 63.0 °F 78% 29.92 in 10.0 mi West 9.2 mph 17.3 mph N/A   Overcast
3:53 AM 69.1 °F 61.0 °F 75% 29.92 in 10.0 mi WNW 8.1 mph - N/A   Mostly Cloudy
4:53 AM 69.1 °F 59.0 °F 70% 29.94 in 10.0 mi WNW 8.1 mph - N/A   Mostly Cloudy
5:53 AM 69.1 °F 57.0 °F 65% 29.95 in 10.0 mi WNW 8.1 mph - N/A   Overcast
6:53 AM 68.0 °F 55.9 °F 65% 29.98 in 10.0 mi WNW 8.1 mph - N/A   Mostly Cloudy
7:53 AM 68.0 °F 55.9 °F 65% 30.00 in 10.0 mi Variable 5.8 mph - N/A   Scattered Clouds
8:53 AM 70.0 °F 55.9 °F 61% 30.03 in 10.0 mi WNW 10.4 mph 17.3 mph N/A   Scattered Clouds
9:53 AM 72.0 °F 55.0 °F 55% 30.05 in 10.0 mi West 13.8 mph 23.0 mph N/A   Scattered Clouds
10:53 AM 73.0 °F 53.1 °F 49% 30.07 in 10.0 mi WNW 15.0 mph 29.9 mph N/A   Mostly Cloudy
11:53 AM 75.0 °F 51.1 °F 43% 30.07 in 10.0 mi NW 12.7 mph 23.0 mph N/A   Mostly Cloudy
12:53 PM 75.0 °F 50.0 °F 41% 30.06 in 10.0 mi NW 18.4 mph 24.2 mph N/A   Mostly Cloudy
1:53 PM 75.9 °F 48.0 °F 37% 30.05 in 10.0 mi WNW 13.8 mph 21.9 mph N/A   Mostly Cloudy
2:53 PM 75.9 °F 48.9 °F 38% 30.04 in 10.0 mi WNW 10.4 mph 20.7 mph N/A   Mostly Cloudy
3:53 PM 77.0 °F 48.0 °F 36% 30.03 in 10.0 mi WNW 11.5 mph 19.6 mph N/A   Mostly Cloudy
4:53 PM 78.1 °F 46.0 °F 32% 30.03 in 10.0 mi NW 8.1 mph 18.4 mph N/A   Mostly Cloudy
5:53 PM 75.9 °F 46.9 °F 36% 30.04 in 10.0 mi NW 5.8 mph - N/A   Mostly Cloudy
6:53 PM 77.0 °F 45.0 °F 32% 30.05 in 10.0 mi NW 4.6 mph - N/A   Scattered Clouds
7:53 PM 73.9 °F 48.9 °F 41% 30.07 in 10.0 mi NNW 6.9 mph - N/A   Scattered Clouds
8:53 PM 72.0 °F 50.0 °F 46% 30.10 in 10.0 mi Variable 4.6 mph - N/A   Clear
9:53 PM 71.1 °F 48.0 °F 44% 30.12 in 10.0 mi NNE 3.5 mph - N/A   Clear
10:53 PM 70.0 °F 48.9 °F 47% 30.14 in 10.0 mi Calm Calm - N/A   Partly Cloudy
11:53 PM 69.1 °F 48.9 °F 49% 30.16 in 10.0 mi NE 3.5 mph - N/A   Partly Cloudy